Time,TemperatureF,DewpointF,PressureIn,WindDirection,WindDirectionDegrees,WindSpeedMPH,WindSpeedGustMPH,Humidity,HourlyPrecipIn,Conditions,Clouds,dailyrainin,SoftwareType,DateUTC
2013-07-29 01:32:00,67.0,64.0,-100.00,East,85,0.0,2.0,89,0.00,,,-99.99,,2013-07-29 05:32:00,
2013-07-29 01:53:00,67.0,64.0,-100.00,West,270,0.0,2.0,89,0.00,,,-99.99,,2013-07-29 05:53:00,
2013-07-29 02:02:00,67.0,64.0,-100.00,WSW,240,0.0,1.0,89,0.00,,,-99.99,,2013-07-29 06:02:00,
2013-07-29 02:12:00,67.0,64.0,-100.00,North,-999,-999.0,-999.0,90,-99.99,,,-99.99,,2013-07-29 06:12:00,
2013-07-29 04:12:00,66.0,64.0,-100.00,NNE,20,0.0,2.0,93,0.00,,,-99.99,,2013-07-29 08:12:00,
2013-07-29 04:22:00,66.0,64.0,-100.00,NNE,20,0.0,2.0,93,0.00,,,-99.99,,2013-07-29 08:22:00,
2013-07-29 04:33:00,66.0,64.0,-100.00,WNW,300,0.0,1.0,94,0.08,,,-99.99,,2013-07-29 08:33:00,
2013-07-29 05:02:00,66.0,64.0,-100.00,WSW,255,0.0,2.0,95,0.00,,,-99.99,,2013-07-29 09:02:00,
2013-07-29 05:22:00,65.0,64.0,-100.00,NNW,330,2.0,3.0,95,0.00,,,-99.99,,2013-07-29 09:22:00,
2013-07-29 07:25:00,65.0,64.0,-100.00,North,350,2.0,3.0,96,0.00,,,-99.99,,2013-07-29 11:25:00,
2013-07-29 07:57:00,66.0,64.0,-100.00,NNW,330,0.0,1.0,95,0.00,,,-99.99,,2013-07-29 11:57:00,
2013-07-29 08:28:00,66.0,64.0,-100.00,WNW,295,1.0,4.0,92,0.00,,,-99.99,,2013-07-29 12:28:00,
2013-07-29 09:29:00,72.0,63.0,-100.00,East,85,1.0,3.0,72,0.00,,,-99.99,,2013-07-29 13:29:00,
2013-07-29 10:07:00,72.0,62.0,-100.00,East,85,1.0,4.0,70,0.00,,,-99.99,,2013-07-29 14:07:00,
2013-07-29 10:29:00,73.0,62.0,-100.00,ESE,120,2.0,5.0,68,0.00,,,-99.99,,2013-07-29 14:29:00,
2013-07-29 11:09:00,76.0,65.0,-100.00,SSW,200,1.0,4.0,69,0.00,,,-99.99,,2013-07-29 15:09:00,
2013-07-29 11:17:00,76.0,62.0,-100.00,South,170,0.0,4.0,63,0.00,,,-99.99,,2013-07-29 15:17:00,
2013-07-29 11:37:00,74.0,63.0,-100.00,West,280,1.0,3.0,67,0.00,,,-99.99,,2013-07-29 15:37:00,
2013-07-29 11:45:00,73.0,63.0,-100.00,WNW,300,2.0,7.0,71,0.00,,,-99.99,,2013-07-29 15:45:00,
2013-07-29 12:24:00,71.0,64.0,-100.00,NNW,330,4.0,7.0,78,0.00,,,-99.99,,2013-07-29 16:24:00,
2013-07-29 12:55:00,74.0,62.0,-100.00,WSW,250,1.0,2.0,66,0.00,,,-99.99,,2013-07-29 16:55:00,
2013-07-29 13:09:00,71.0,63.0,-100.00,NW,325,7.0,10.0,76,0.00,,,-99.99,,2013-07-29 17:09:00,
2013-07-29 15:27:00,77.0,60.0,-100.00,West,275,1.0,4.0,55,0.00,,,-99.99,,2013-07-29 19:27:00,
2013-07-29 16:08:00,77.0,58.0,-100.00,West,270,4.0,9.0,51,0.00,,,-99.99,,2013-07-29 20:08:00,
2013-07-29 17:49:00,76.0,60.0,-100.00,SW,220,1.0,2.0,57,0.00,,,-99.99,,2013-07-29 21:49:00,
2013-07-29 17:58:00,76.0,58.0,-100.00,WSW,245,0.0,2.0,53,0.00,,,-99.99,,2013-07-29 21:58:00,
2013-07-29 18:05:00,76.0,54.0,-100.00,West,265,1.0,6.0,46,0.00,,,-99.99,,2013-07-29 22:05:00,
2013-07-29 18:25:00,77.0,54.0,-100.00,West,265,2.0,7.0,45,0.00,,,-99.99,,2013-07-29 22:25:00,
2013-07-29 18:44:00,76.0,54.0,-100.00,NW,325,4.0,9.0,47,0.00,,,-99.99,,2013-07-29 22:44:00,
2013-07-29 20:08:00,73.0,62.0,-100.00,SSW,210,0.0,0.0,67,0.00,,,-99.99,,2013-07-30 00:08:00,
2013-07-29 20:35:00,70.0,59.0,-100.00,WSW,250,0.0,1.0,69,0.00,,,-99.99,,2013-07-30 00:35:00,
2013-07-29 20:49:00,69.0,58.0,-100.00,West,265,0.0,1.0,69,0.00,,,-99.99,,2013-07-30 00:49:00,
2013-07-29 21:38:00,66.0,56.0,-100.00,WNW,295,2.0,7.0,70,0.00,,,-99.99,,2013-07-30 01:38:00,
2013-07-29 22:25:00,67.0,57.0,-100.00,NW,315,2.0,7.0,72,0.00,,,-99.99,,2013-07-30 02:25:00,
2013-07-29 22:46:00,66.0,58.0,-100.00,South,175,1.0,6.0,76,0.00,,,-99.99,,2013-07-30 02:46:00,
2013-07-29 22:55:00,65.0,58.0,-100.00,NW,315,1.0,4.0,77,0.00,,,-99.99,,2013-07-30 02:55:00,
2013-07-29 23:19:00,65.0,58.0,-100.00,West,260,0.0,1.0,79,0.00,,,-99.99,,2013-07-30 03:19:00,
2013-07-29 23:35:00,63.0,58.0,-100.00,WNW,300,0.0,1.0,82,0.00,,,-99.99,,2013-07-30 03:35:00,
2013-07-29 23:46:00,63.0,58.0,-100.00,SW,225,0.0,1.0,84,0.00,,,-99.99,,2013-07-30 03:46:00,
2013-07-29 23:53:00,63.0,58.0,-100.00,WSW,240,0.0,1.0,84,0.00,,,-99.99,,2013-07-30 03:53:00,